Weather History for St. Petersburg, FL

Change the Weather History Date:

Wednesday, March 6, 2013

  Actual Average Record
Temperature  
Mean Temperature 60 °F -  
Max Temperature 66 °F 75 °F 88 °F (1961)
Min Temperature 55 °F 59 °F 39 °F (1960)
Degree Days  
Heating Degree Days 4    
Growing Degree Days 10 (Base 50)    
Moisture  
Dew Point 49 °F    
Average Humidity 67    
Maximum Humidity 90    
Minimum Humidity 39    
Precipitation  
Precipitation 0.02 in - - ()
Sea Level Pressure  
Sea Level Pressure 30.05 in    
Wind  
Wind Speed 13 mph (NW)    
Max Wind Speed 22 mph    
Max Gust Speed 30 mph    
Visibility 10 miles    
Events Rain    
Averages and records for this station are not official NWS values.
T = Trace of Precipitation, MM = Missing Value Source: NWS Daily Summary

Daily Weather History Graph

Daily Weather History Graph

Search for Another Location

Airport:

Trip Planner

Search our weather history database for the weather conditions in past years. The results will help you decide how hot, cold, wet, or windy it might be!

Date:

Astronomy

Mar. 06, 2013 Rise Set
Actual Time 6:49 AM EST 6:34 PM EST
Civil Twilight 6:26 AM EST 6:57 PM EST
Nautical Twilight 5:59 AM EST 7:24 PM EST
Astronomical Twilight 5:31 AM EST 7:51 PM EST
Moon 2:36 AM EST (3/6) 1:35 PM EST (3/6)
Length of Visible Light 12h 31m
Length of Day
11h 44m
Waning Crescent, 30% of the Moon is Illuminated
Mar 6
Waning Crescent
Mar 11
New
Mar 19
First Quarter
Mar 27
Full
Apr 3
Last Quarter

Hourly Weather History & Observations

Time (EST) Temp. Dew Point Humidity Pressure Visibility Wind Dir Wind Speed Gust Speed Precip Events Conditions
12:53 AM 66.0 °F 62.1 °F 87% 30.03 in 10.0 mi WSW 9.2 mph - N/A   Mostly Cloudy
1:53 AM 66.9 °F 62.1 °F 84% 30.01 in 10.0 mi WSW 10.4 mph - N/A   Overcast
2:05 AM 66.9 °F 62.1 °F 84% 30.00 in 10.0 mi WSW 9.2 mph - N/A   Overcast
2:31 AM 66.9 °F 62.1 °F 84% 30.00 in 10.0 mi WSW 11.5 mph - N/A   Mostly Cloudy
2:53 AM 66.9 °F 62.1 °F 84% 29.99 in 10.0 mi WSW 10.4 mph - N/A   Overcast
3:39 AM 66.9 °F 63.0 °F 87% 29.98 in 10.0 mi West 12.7 mph - 0.00 in   Overcast
3:53 AM 66.9 °F 63.0 °F 87% 29.98 in 9.0 mi West 9.2 mph - 0.00 in Rain Light Rain
4:23 AM 66.9 °F 63.0 °F 87% 29.97 in 10.0 mi West 11.5 mph - 0.02 in   Overcast
4:53 AM 66.9 °F 64.0 °F 90% 29.98 in 10.0 mi West 10.4 mph - 0.02 in   Overcast
5:23 AM 63.0 °F 57.9 °F 84% 30.00 in 10.0 mi North 16.1 mph 29.9 mph 0.00 in Rain Light Rain
5:30 AM 62.1 °F 55.9 °F 80% 30.00 in 10.0 mi North 18.4 mph 25.3 mph 0.00 in   Overcast
5:42 AM 62.1 °F 55.9 °F 80% 30.01 in 10.0 mi North 19.6 mph 27.6 mph 0.00 in   Overcast
5:53 AM 62.1 °F 55.9 °F 80% 30.03 in 10.0 mi North 16.1 mph 25.3 mph 0.00 in   Overcast
6:10 AM 59.0 °F 51.1 °F 75% 30.03 in 10.0 mi NNW 19.6 mph 27.6 mph N/A   Overcast
6:24 AM 59.0 °F 50.0 °F 72% 30.04 in 10.0 mi North 18.4 mph 28.8 mph N/A   Overcast
6:53 AM 55.9 °F 43.0 °F 62% 30.05 in 10.0 mi North 19.6 mph 26.5 mph N/A   Scattered Clouds
7:53 AM 55.0 °F 43.0 °F 64% 30.10 in 10.0 mi North 17.3 mph 26.5 mph N/A   Clear
8:53 AM 55.9 °F 43.0 °F 62% 30.12 in 10.0 mi North 16.1 mph 26.5 mph N/A   Clear
9:53 AM 57.9 °F 42.1 °F 56% 30.14 in 10.0 mi North 16.1 mph 21.9 mph N/A   Clear
10:53 AM 59.0 °F 42.1 °F 53% 30.13 in 10.0 mi North 21.9 mph 26.5 mph N/A   Clear
11:53 AM 60.1 °F 35.1 °F 39% 30.12 in 10.0 mi NNW 15.0 mph 29.9 mph N/A   Clear
12:53 PM 61.0 °F 37.9 °F 42% 30.09 in 10.0 mi NW 13.8 mph 21.9 mph N/A   Clear
1:53 PM 61.0 °F 39.0 °F 44% 30.07 in 10.0 mi NNW 17.3 mph 21.9 mph N/A   Clear
2:53 PM 60.1 °F 39.0 °F 46% 30.06 in 10.0 mi North 17.3 mph 23.0 mph N/A   Clear
3:53 PM 59.0 °F 37.9 °F 46% 30.06 in 10.0 mi NNW 18.4 mph 27.6 mph N/A   Clear
4:53 PM 59.0 °F 39.0 °F 48% 30.06 in 10.0 mi NW 11.5 mph 23.0 mph N/A   Clear
5:53 PM 57.9 °F 39.9 °F 51% 30.06 in 10.0 mi NNW 16.1 mph 23.0 mph N/A   Clear
6:53 PM 57.0 °F 39.9 °F 53% 30.08 in 10.0 mi NNW 12.7 mph - N/A   Clear
7:53 PM 57.0 °F 41.0 °F 55% 30.10 in 10.0 mi NNW 8.1 mph - N/A   Clear
8:53 PM 55.9 °F 41.0 °F 57% 30.11 in 10.0 mi NNW 8.1 mph - N/A   Clear
9:53 PM 57.0 °F 42.1 °F 57% 30.13 in 10.0 mi NNW 6.9 mph - N/A   Clear
10:53 PM 57.0 °F 43.0 °F 59% 30.14 in 10.0 mi North 6.9 mph - N/A   Clear
11:53 PM 55.9 °F 42.1 °F 60% 30.14 in 10.0 mi North 8.1 mph - N/A   Clear